STARLINK-31642, 59726

Orbit data source: Space-Track

STARLINK-31642, 59726 is a payload satellite owned by SpaceX/Seattle (US) in LEO that was launched on Fri, 10 May 2024 UTC via an FALCON 9 launch vehicle from the Air Force Western Test Range (AFWTR). Payload-class satellites include a variety of spacecraft equipped with specific instruments for various scientific and technological missions. These include communications satellites like Starlink; space stations such as the ISS; scientific satellites like the Hubble; Earth observation satellites from companies like Planet Labs, Umbra, and HawkEye 360; GPS; miniature CubeSats for education and research; and military/defense satellites.

Loading next visibility...
Identifier
59726, 2024-088U
Orbit
LEO
Country
Flag of USUS
Related business
Manufacturer
SpaceX/Seattle
Mission
Operational Commercial Communications
Bus & Motor
STARLINK V2M, Unknown motor
Mass
730 kg wet, ~700 kg dry
Launch date (UTC)
2024-05-10 (2 years ago)
Launch vehicle
FALCON 9
Launch site
Air Force Western Test Range (AFWTR)
Object type
Payload
Rocket body
Debris
Shape & HBR
Box + 2 Pan, 17.7 m
Radar Cross Section
33.884 m², Large (>1 m²)

Expand to show TLE details & history
Last TLE update: 12 hours ago

TLE from 12 hours ago
0 STARLINK-31642
1 59726U 24088U   25346.85548408 -.00000310  00000-0  16580-5 0  9993
2 59726  53.1580 183.5171 0000996 109.6778 250.4330 15.30189570 90387
Epoch: 2025-12-12T20:31Z
TLE epoch observation values (Epoch: 2025-12-12T20:31:53.824Z)
Latitude
-0.00004°
Longitude
153.75168°
Altitude
476.374 km
Speed
7.629 km/s
True Right ascension
12h 14m 04s
True Declination
0° 00' 00"
Sunlit
Object was in daylight at epoch
Visualization orbit readout
Latitude
Unknown
Longitude
Unknown
Altitude
Unknown
Speed
Unknown
Apparent Right ascension
Unknown
Apparent Declination
Unknown
Sunlit
N/A
Visualization observer readout
Local Sidereal Time
07:27:31
Azimuth
Unknown
Elevation
Unknown
Doppler factor
Unknown
Orbital elements
Apogee altitude
476.186 km
Perigee altitude
474.82 km
Semi-major axis
6,853.64 km
Eccentricity
0.0001
Inclination
53.158°
RAAN
183.5171°
Arg. of periapsis
109.6778°
True anomaly
250.42225°
Mean anomaly
250.433°
Eccentric anomaly
250.42762°
Mean motion
3.82526 °/min
Orbital period
94.11 mins
BSTAR
0.000001658
Loading maneuver chart data...
Computing Atmospheric mass density...
Loading historical data...
Loading historical data...
Loading historical data...
Loading historical data...
Loading historical data...
Loading historical data...
Loading historical data...

Documentation

Showing up to 5 results
|